Temp
-10 -10 -10 -10 -10 -10 -10 -10 -11 -11 -11 -11 -11 -11 -11 -11 -11 -11 -11 -11 -11 -11 -11 -11 -11 -11 -11 -11 -11 -11 -11 -11 -11 -11 -11 -10 -11 -11 -11 -11 -11 -11 -11 -11 -11 -11 -11 -11 -11 -10 -10 -10 -10 -10 -10 -10 -10 -10 -10 -10 -10 -10 -10 -11 -11 -11 -11 -11 -11 -10 -10 -10 -10 -10
-10 -10 -10 -10 -10 -10 -10 -10 -10 -11 -11 -10 -10 -10 -10 -10 -10 -10 -10 -11 -11 -11 -11 -11 -11 -11 -11 -11 -11 -11 -11 -11 -11 -11 -11 -10 -10 -11 -11 -11 -11 -11 -11 -11 -11 -11 -11 -11 -11 -11 -11 -10 -10 -10 -10 -10 -10 -11 -11 -11 -11 -11 -11 -11 -11 -11 -11 -11 -11 -11 -11 -10 -10 -10
-10 -10 -10 -10 -10 -10 -10 -10 -10 -10 -10 -10 -10 -10 -10 -10 -10 -10 -10 -10 -11 -11 -11 -11 -11 -11 -11 -11 -11 -11 -11 -11 -11 -10 -10 -11 -11 -11 -11 -11 -11 -11 -11 -11 -11 -11 -11 -11 -11 -11 -11 -11 -10 -10 -10 -10 -11 -11 -11 -11 -11 -11 -11 -11 -11 -11 -11 -11 -11 -11 -11 -11 -11 -11
-10 -10 -10 -10 -10 -10 -11 -10 -10 -10 -10 -10 -10 -10 -10 -10 -10 -10 -10 -10 -10 -11 -11 -11 -11 -11 -11 -11 -11 -11 -11 -11 -11 -11 -10 -11 -11 -11 -11 -11 -11 -11 -11 -11 -11 -11 -11 -11 -11 -11 -11 -11 -11 -10 -10 -10 -11 -11 -11 -11 -11 -11 -11 -11 -11 -11 -11 -11 -11 -11 -11 -11 -11 -11
-10 -10 -10 -10 -10 -10 -10 -10 -10 -10 -10 -10 -10 -10 -10 -10 -10 -10 -10 -10 -10 -10 -11 -11 -11 -11 -11 -11 -11 -11 -11 -11 -11 -11 -10 -10 -11 -11 -11 -11 -11 -11 -11 -11 -11 -11 -11 -11 -11 -11 -11 -11 -11 -11 -11 -11 -11 -11 -11 -11 -11 -11 -11 -11 -11 -11 -11 -11 -11 -11 -11 -11 -11 -11
-11 -10 -10 -10 -10 -10 -10 -11 -11 -11 -10 -10 -10 -10 -10 -10 -10 -11 -11 -10 -10 -10 -10 -11 -11 -11 -11 -10 -11 -11 -11 -11 -11 -11 -11 -11 -11 -11 -11 -11 -11 -11 -11 -11 -11 -11 -11 -11 -11 -11 -11 -11 -11 -11 -11 -11 -11 -11 -11 -11 -11 -11 -11 -11 -11 -11 -11 -11 -11 -11 -11 -11 -11 -11
-11 -11 -11 -11 -11 -11 -11 -11 -11 -11 -11 -11 -10 -10 -10 -10 -11 -11 -10 -10 -10 -10 -10 -10 -10 -11 -11 -11 -11 -11 -11 -11 -11 -11 -11 -11 -11 -10 -10 -10 -10 -11 -11 -11 -11 -11 -11 -11 -11 -11 -11 -11 -11 -11 -11 -11 -11 -11 -11 -11 -11 -11 -11 -11 -11 -11 -11 -11 -11 -11 -11 -11 -11 -11
-12 -12 -12 -12 -12 -12 -11 -11 -12 -12 -11 -11 -11 -11 -11 -11 -11 -11 -10 -10 -10 -9 -10 -10 -10 -11 -11 -11 -11 -11 -11 -11 -11 -11 -11 -11 -11 -11 -10 -10 -10 -11 -11 -11 -11 -11 -11 -11 -11 -11 -11 -11 -11 -11 -11 -11 -11 -11 -11 -11 -11 -11 -11 -11 -11 -11 -11 -11 -11 -11 -11 -11 -11 -11
-13 -13 -13 -13 -14 -13 -13 -12 -12 -12 -12 -12 -12 -11 -11 -11 -11 -11 -11 -11 -11 -10 -10 -10 -10 -11 -11 -11 -11 -11 -11 -11 -11 -11 -10 -11 -11 -10 -10 -10 -10 -11 -11 -11 -11 -11 -11 -11 -11 -11 -11 -11 -11 -11 -11 -11 -11 -11 -11 -11 -11 -11 -11 -11 -11 -11 -11 -11 -11 -11 -11 -11 -11 -11
-14 -14 -14 -14 -15 -15 -14 -14 -13 -13 -13 -13 -13 -12 -12 -11 -11 -11 -11 -11 -11 -11 -11 -10 -10 -11 -11 -11 -11 -11 -11 -11 -10 -10 -10 -10 -11 -10 -10 -10 -10 -10 -10 -11 -11 -11 -11 -11 -11 -11 -11 -11 -11 -11 -11 -11 -11 -11 -11 -11 -11 -11 -11 -11 -11 -11 -11 -11 -11 -11 -11 -11 -11 -11
-14 -15 -15 -15 -15 -15 -15 -15 -15 -15 -14 -14 -13 -13 -13 -12 -12 -12 -12 -12 -12 -11 -11 -11 -11 -11 -11 -11 -11 -11 -11 -11 -10 -10 -10 -11 -11 -10 -10 -10 -11 -11 -10 -10 -10 -11 -11 -11 -11 -11 -11 -11 -11 -11 -11 -11 -11 -11 -11 -11 -11 -12 -11 -11 -11 -11 -11 -11 -11 -11 -11 -11 -11 -11
-15 -15 -15 -15 -15 -15 -15 -15 -15 -15 -15 -15 -14 -14 -14 -13 -13 -13 -12 -12 -12 -12 -12 -11 -11 -11 -11 -11 -11 -12 -12 -11 -11 -11 -11 -11 -11 -11 -10 -10 -10 -11 -11 -10 -10 -10 -11 -11 -11 -11 -11 -11 -11 -11 -11 -11 -12 -12 -12 -12 -12 -12 -11 -12 -11 -11 -11 -11 -11 -11 -11 -11 -11 -11
-15 -15 -15 -15 -15 -15 -16 -16 -16 -16 -15 -15 -15 -15 -15 -14 -14 -13 -13 -13 -12 -12 -12 -12 -12 -12 -11 -11 -11 -11 -11 -11 -11 -11 -11 -10 -10 -11 -10 -10 -10 -11 -11 -11 -10 -10 -10 -10 -11 -11 -11 -11 -11 -11 -11 -11 -12 -12 -12 -12 -12 -12 -12 -12 -12 -12 -12 -12 -11 -11 -11 -11 -11 -11
-15 -15 -15 -15 -15 -15 -15 -16 -16 -16 -15 -15 -15 -15 -15 -15 -15 -14 -14 -14 -13 -13 -13 -13 -12 -12 -12 -12 -12 -12 -12 -12 -12 -12 -11 -10 -10 -11 -11 -11 -11 -11 -10 -11 -11 -10 -10 -11 -11 -11 -11 -11 -11 -11 -11 -11 -11 -12 -12 -12 -12 -12 -12 -12 -12 -12 -12 -12 -12 -12 -11 -11 -11 -11
-15 -15 -15 -15 -15 -15 -15 -15 -15 -16 -15 -15 -15 -15 -15 -15 -15 -15 -14 -14 -14 -13 -13 -13 -13 -12 -12 -12 -12 -12 -12 -12 -11 -12 -12 -11 -10 -10 -11 -11 -11 -11 -11 -11 -10 -10 -11 -11 -11 -11 -11 -11 -11 -11 -11 -11 -11 -11 -11 -12 -12 -12 -12 -12 -12 -12 -12 -12 -12 -12 -12 -11 -11 -11
-15 -15 -15 -15 -15 -15 -15 -15 -15 -15 -15 -15 -15 -15 -15 -15 -15 -15 -15 -15 -14 -13 -13 -13 -13 -13 -12 -12 -12 -12 -12 -12 -12 -12 -12 -11 -11 -11 -11 -11 -11 -12 -11 -11 -10 -10 -11 -11 -11 -11 -11 -11 -11 -11 -11 -11 -11 -11 -11 -11 -11 -12 -12 -12 -12 -12 -12 -12 -12 -12 -12 -12 -12 -12
-15 -15 -15 -15 -15 -15 -15 -15 -15 -15 -15 -15 -15 -15 -15 -15 -15 -15 -15 -15 -15 -14 -14 -14 -14 -14 -13 -13 -13 -13 -13 -13 -12 -12 -12 -12 -12 -11 -11 -11 -12 -12 -12 -11 -10 -10 -11 -11 -11 -11 -11 -11 -11 -11 -11 -11 -11 -11 -11 -11 -11 -11 -11 -12 -12 -12 -12 -12 -12 -12 -12 -12 -12 -12
-15 -15 -15 -15 -15 -15 -15 -15 -15 -15 -15 -15 -15 -15 -15 -15 -15 -15 -15 -15 -15 -15 -14 -14 -14 -14 -14 -13 -13 -14 -13 -13 -13 -13 -12 -12 -12 -12 -12 -11 -12 -12 -12 -11 -11 -10 -11 -11 -11 -11 -11 -11 -11 -11 -11 -11 -11 -11 -11 -11 -11 -12 -12 -12 -12 -12 -12 -12 -12 -12 -12 -12 -12 -12
-15 -15 -15 -15 -15 -15 -15 -15 -15 -15 -15 -15 -15 -15 -15 -15 -15 -15 -15 -15 -15 -15 -15 -14 -14 -14 -14 -14 -14 -14 -14 -13 -13 -13 -13 -12 -12 -12 -11 -12 -12 -12 -12 -12 -11 -11 -11 -11 -11 -11 -11 -11 -11 -11 -11 -11 -11 -11 -11 -11 -11 -11 -12 -12 -12 -12 -12 -12 -12 -12 -12 -12 -12 -12
-15 -15 -15 -15 -15 -15 -15 -15 -15 -15 -15 -15 -15 -15 -15 -15 -16 -15 -15 -15 -15 -15 -15 -15 -15 -15 -15 -14 -14 -14 -14 -13 -13 -13 -13 -13 -12 -12 -12 -12 -12 -12 -12 -12 -11 -11 -11 -12 -11 -11 -12 -12 -11 -11 -11 -11 -12 -12 -12 -12 -11 -11 -11 -11 -12 -12 -12 -12 -12 -12 -12 -12 -12 -12
-15 -15 -15 -15 -15 -15 -15 -15 -15 -15 -15 -15 -15 -15 -15 -15 -15 -15 -15 -15 -15 -15 -15 -15 -15 -15 -15 -15 -15 -15 -14 -14 -14 -14 -13 -13 -13 -13 -12 -12 -12 -12 -12 -12 -12 -11 -11 -12 -12 -12 -12 -12 -12 -12 -12 -12 -12 -12 -12 -12 -12 -12 -12 -12 -12 -12 -12 -12 -12 -11 -11 -11 -11 -11
-16 -15 -15 -15 -15 -15 -15 -15 -15 -15 -15 -15 -15 -15 -15 -15 -15 -15 -15 -15 -15 -15 -15 -15 -15 -15 -15 -15 -15 -15 -16 -15 -15 -14 -14 -13 -13 -13 -13 -13 -13 -12 -12 -12 -13 -12 -12 -12 -12 -12 -12 -12 -12 -12 -12 -12 -12 -12 -12 -12 -12 -12 -12 -12 -12 -12 -12 -12 -12 -12 -12 -12 -11 -11
-16 -15 -15 -15 -15 -15 -15 -15 -14 -14 -15 -15 -15 -15 -15 -15 -15 -15 -15 -15 -15 -15 -15 -15 -15 -15 -15 -15 -16 -16 -16 -16 -15 -15 -14 -14 -14 -13 -13 -13 -13 -12 -12 -13 -13 -12 -12 -12 -12 -12 -12 -12 -12 -12 -12 -12 -12 -12 -12 -12 -12 -12 -12 -12 -12 -12 -12 -12 -12 -12 -12 -12 -11 -11
-16 -16 -15 -15 -15 -15 -15 -15 -15 -15 -15 -15 -15 -15 -15 -15 -15 -15 -15 -15 -15 -15 -15 -15 -15 -15 -15 -15 -15 -16 -15 -15 -15 -15 -15 -14 -14 -14 -14 -13 -13 -12 -12 -13 -13 -13 -12 -12 -12 -12 -12 -12 -12 -12 -12 -12 -12 -12 -12 -12 -12 -12 -12 -12 -12 -12 -12 -12 -12 -12 -12 -12 -11 -11
-16 -16 -15 -15 -15 -15 -15 -15 -15 -15 -14 -15 -15 -15 -15 -15 -15 -15 -15 -15 -15 -15 -15 -15 -15 -15 -15 -15 -15 -16 -15 -15 -15 -15 -15 -15 -15 -14 -14 -14 -13 -13 -12 -13 -13 -13 -12 -12 -12 -12 -12 -12 -12 -12 -12 -12 -12 -12 -12 -12 -12 -12 -12 -12 -12 -12 -12 -12 -12 -12 -12 -12 -12 -11
-16 -16 -16 -15 -15 -15 -15 -15 -15 -15 -15 -15 -15 -15 -15 -15 -15 -15 -15 -15 -15 -15 -15 -15 -15 -15 -15 -15 -15 -16 -16 -16 -16 -15 -15 -15 -14 -14 -14 -14 -14 -13 -13 -13 -14 -13 -13 -12 -12 -12 -12 -12 -12 -12 -12 -12 -12 -12 -12 -12 -12 -12 -12 -12 -12 -12 -12 -12 -12 -12 -12 -12 -12 -12
-17 -16 -16 -16 -15 -15 -15 -15 -15 -15 -15 -15 -15 -15 -15 -15 -15 -15 -15 -15 -15 -15 -15 -15 -15 -15 -15 -15 -15 -16 -16 -16 -16 -16 -15 -15 -14 -14 -14 -14 -14 -14 -13 -13 -14 -13 -13 -13 -13 -12 -12 -13 -13 -12 -12 -12 -12 -12 -12 -12 -12 -12 -12 -12 -12 -12 -12 -12 -12 -12 -12 -12 -12 -12
-18 -17 -17 -17 -16 -16 -15 -15 -15 -15 -15 -15 -15 -15 -15 -15 -15 -15 -15 -15 -15 -15 -15 -15 -15 -15 -15 -15 -15 -16 -16 -16 -16 -16 -15 -15 -15 -14 -14 -14 -14 -14 -14 -14 -14 -13 -13 -13 -13 -13 -13 -13 -13 -12 -12 -13 -13 -13 -13 -12 -12 -12 -12 -12 -12 -12 -12 -12 -12 -12 -12 -12 -12 -12
-18 -18 -18 -18 -17 -17 -16 -16 -16 -15 -15 -15 -15 -15 -15 -15 -15 -15 -15 -15 -15 -15 -15 -15 -15 -15 -15 -15 -15 -15 -16 -16 -16 -16 -16 -15 -15 -15 -15 -15 -15 -15 -15 -15 -14 -14 -14 -13 -13 -13 -13 -13 -13 -13 -13 -13 -13 -13 -13 -13 -12 -12 -12 -12 -12 -12 -12 -12 -12 -12 -12 -12 -12 -12
-19 -19 -19 -18 -18 -18 -17 -17 -17 -16 -16 -16 -16 -16 -15 -15 -15 -15 -15 -15 -15 -15 -15 -15 -15 -15 -15 -15 -15 -15 -15 -16 -16 -15 -15 -15 -15 -15 -15 -15 -15 -15 -15 -15 -15 -14 -14 -14 -13 -13 -13 -13 -13 -13 -13 -14 -14 -14 -13 -13 -13 -13 -13 -13 -13 -13 -13 -13 -13 -13 -12 -13 -13 -13
-20 -19 -19 -19 -19 -19 -18 -18 -18 -17 -17 -17 -16 -16 -16 -16 -15 -15 -15 -15 -15 -15 -15 -15 -15 -15 -15 -15 -15 -15 -15 -15 -15 -15 -15 -15 -15 -15 -15 -15 -15 -15 -15 -15 -15 -15 -15 -14 -14 -14 -14 -13 -13 -14 -14 -14 -14 -14 -13 -13 -13 -13 -13 -13 -13 -13 -13 -13 -13 -13 -13 -13 -13 -13
-20 -20 -20 -20 -19 -19 -19 -19 -18 -18 -18 -17 -17 -17 -17 -16 -16 -16 -15 -15 -15 -15 -15 -15 -15 -15 -15 -15 -15 -15 -15 -15 -15 -15 -15 -15 -15 -15 -15 -15 -15 -15 -15 -15 -15 -15 -15 -15 -15 -14 -14 -14 -14 -14 -14 -14 -14 -14 -13 -13 -13 -13 -13 -13 -13 -13 -13 -13 -13 -13 -13 -13 -13 -13
-20 -20 -20 -20 -20 -20 -20 -19 -19 -19 -18 -18 -18 -17 -17 -17 -16 -16 -16 -15 -15 -15 -15 -15 -15 -15 -15 -15 -15 -15 -15 -15 -15 -15 -15 -15 -15 -15 -15 -15 -15 -15 -15 -15 -15 -15 -15 -15 -15 -15 -15 -15 -15 -15 -15 -15 -14 -14 -14 -14 -14 -14 -14 -13 -13 -13 -14 -14 -14 -14 -14 -14 -14 -14
-20 -20 -20 -20 -20 -20 -19 -19 -19 -19 -19 -18 -18 -18 -17 -17 -17 -16 -16 -16 -15 -15 -15 -15 -15 -15 -15 -15 -15 -15 -15 -15 -15 -15 -15 -15 -15 -15 -15 -15 -15 -15 -15 -15 -15 -15 -15 -15 -15 -15 -15 -15 -15 -15 -15 -15 -15 -15 -15 -14 -14 -14 -14 -14 -14 -14 -14 -14 -14 -14 -14 -14 -14 -14
-20 -20 -20 -19 -19 -19 -19 -19 -19 -19 -19 -18 -18 -18 -18 -17 -17 -17 -16 -16 -16 -15 -15 -15 -15 -15 -15 -15 -15 -15 -15 -15 -16 -16 -16 -16 -16 -16 -16 -16 -15 -15 -15 -15 -15 -15 -15 -15 -15 -15 -15 -15 -15 -15 -15 -15 -15 -15 -15 -15 -15 -14 -14 -14 -14 -14 -14 -14 -14 -14 -14 -14 -14 -14
-19 -19 -19 -19 -19 -19 -19 -19 -19 -19 -18 -18 -18 -18 -18 -17 -17 -16 -16 -16 -16 -15 -15 -15 -15 -15 -15 -15 -16 -16 -16 -16 -16 -16 -16 -16 -16 -16 -16 -16 -16 -16 -15 -15 -15 -15 -15 -15 -15 -15 -15 -15 -15 -15 -15 -15 -15 -15 -15 -15 -15 -15 -15 -15 -15 -15 -15 -14 -14 -14 -15 -15 -14 -14
-19 -19 -19 -19 -19 -19 -19 -19 -19 -19 -19 -19 -18 -18 -18 -17 -17 -16 -16 -16 -16 -16 -16 -16 -16 -16 -16 -16 -16 -16 -16 -16 -16 -17 -17 -17 -17 -17 -17 -17 -17 -17 -16 -16 -16 -16 -16 -16 -16 -15 -15 -15 -15 -15 -15 -15 -15 -15 -15 -15 -15 -15 -15 -15 -15 -15 -15 -15 -15 -15 -15 -15 -15 -15
-20 -20 -20 -20 -20 -19 -19 -19 -19 -19 -19 -19 -19 -18 -18 -18 -17 -17 -17 -16 -16 -16 -16 -16 -16 -16 -16 -16 -16 -16 -16 -17 -17 -17 -17 -17 -18 -18 -18 -18 -18 -18 -17 -17 -17 -16 -16 -17 -17 -16 -16 -16 -15 -15 -15 -15 -15 -15 -15 -15 -15 -15 -15 -15 -15 -15 -15 -15 -15 -15 -15 -15 -15 -15
-20 -20 -20 -20 -20 -20 -20 -20 -19 -19 -19 -19 -19 -18 -18 -18 -17 -17 -17 -17 -17 -17 -17 -17 -17 -17 -17 -17 -17 -17 -17 -17 -17 -17 -17 -18 -19 -19 -20 -19 -19 -19 -18 -18 -17 -17 -17 -17 -17 -17 -17 -17 -16 -16 -16 -16 -16 -15 -15 -15 -15 -16 -16 -16 -16 -16 -16 -16 -16 -16 -16 -15 -15 -15
-20 -20 -20 -20 -20 -20 -20 -20 -20 -20 -19 -19 -19 -19 -18 -18 -18 -18 -18 -18 -18 -17 -17 -17 -17 -17 -17 -17 -17 -17 -17 -17 -17 -18 -18 -18 -19 -20 -20 -20 -20 -19 -19 -18 -18 -18 -18 -17 -18 -18 -17 -17 -17 -17 -17 -16 -16 -16 -16 -15 -16 -16 -16 -16 -16 -16 -16 -16 -16 -16 -16 -16 -16 -16
-20 -20 -20 -20 -20 -20 -20 -20 -20 -20 -20 -20 -19 -19 -19 -19 -19 -19 -19 -18 -18 -18 -17 -17 -17 -17 -17 -17 -17 -18 -18 -18 -18 -18 -18 -19 -19 -20 -20 -20 -20 -19 -19 -19 -19 -18 -18 -18 -18 -18 -18 -18 -18 -18 -17 -17 -17 -17 -16 -16 -16 -16 -16 -16 -16 -16 -16 -16 -16 -16 -16 -16 -16 -16
-20 -20 -20 -20 -21 -21 -20 -20 -20 -20 -20 -20 -20 -20 -19 -19 -19 -19 -19 -19 -19 -19 -18 -18 -18 -18 -18 -18 -18 -18 -18 -19 -19 -19 -19 -19 -19 -19 -19 -19 -19 -19 -19 -19 -19 -18 -18 -18 -18 -18 -18 -18 -18 -18 -18 -17 -17 -17 -17 -17 -17 -16 -16 -16 -16 -16 -16 -16 -16 -16 -16 -16 -16 -16
-20 -20 -20 -20 -20 -20 -20 -20 -20 -20 -20 -20 -20 -20 -20 -20 -20 -20 -19 -19 -19 -19 -19 -19 -19 -19 -19 -19 -19 -19 -19 -19 -19 -19 -19 -19 -19 -19 -19 -19 -19 -19 -19 -19 -19 -18 -18 -18 -18 -18 -18 -18 -18 -18 -18 -18 -18 -18 -17 -17 -17 -17 -16 -16 -16 -16 -16 -16 -16 -16 -16 -16 -16 -16
-20 -20 -20 -20 -20 -20 -20 -20 -20 -20 -20 -20 -20 -20 -20 -20 -20 -20 -20 -20 -20 -20 -20 -19 -19 -19 -19 -19 -20 -20 -20 -20 -19 -19 -19 -19 -19 -19 -19 -19 -19 -18 -18 -18 -18 -18 -18 -18 -18 -18 -18 -18 -18 -18 -18 -18 -18 -18 -18 -18 -18 -17 -17 -17 -17 -16 -16 -16 -16 -16 -16 -16 -16 -16
-20 -20 -21 -21 -21 -20 -20 -20 -20 -20 -20 -20 -20 -20 -20 -20 -20 -20 -20 -20 -20 -20 -20 -20 -20 -20 -20 -20 -20 -20 -20 -19 -19 -19 -19 -19 -19 -19 -19 -19 -19 -19 -19 -19 -19 -19 -19 -19 -19 -19 -18 -18 -18 -18 -18 -18 -18 -18 -18 -18 -18 -18 -17 -17 -17 -17 -17 -17 -17 -17 -18 -18 -18 -17
Height
5739 5740 5742 5744 5746 5749 5750 5751 5751 5752 5754 5755 5756 5757 5757 5757 5758 5760 5761 5764 5767 5768 5767 5767 5771 5773 5774 5775 5776 5776 5778 5779 5780 5781 5783 5786 5788 5789 5789 5791 5792 5793 5794 5794 5795 5795 5796 5796 5797 5799 5800 5802 5802 5803 5803 5804 5804 5804 5804 5804 5805 5805 5805 5806 5806 5806 5806 5806 5806 5806 5806 5805 5805 5805
5732 5734 5735 5737 5740 5742 5744 5745 5746 5747 5748 5749 5751 5752 5752 5752 5753 5755 5757 5760 5762 5763 5763 5763 5765 5768 5769 5770 5771 5772 5773 5774 5774 5776 5778 5780 5783 5785 5785 5786 5788 5789 5790 5791 5792 5792 5792 5792 5793 5794 5796 5797 5798 5799 5799 5800 5800 5800 5801 5801 5801 5802 5802 5802 5802 5803 5803 5803 5803 5803 5803 5803 5802 5802
5724 5726 5728 5730 5732 5735 5736 5738 5739 5741 5742 5743 5745 5745 5746 5746 5747 5749 5751 5754 5758 5759 5758 5759 5760 5761 5763 5764 5765 5767 5769 5770 5770 5771 5772 5774 5778 5780 5781 5782 5783 5785 5787 5788 5788 5788 5789 5789 5789 5790 5791 5793 5794 5795 5795 5795 5796 5796 5797 5797 5798 5798 5798 5798 5799 5799 5799 5799 5800 5800 5800 5800 5800 5799
5716 5719 5721 5723 5725 5727 5729 5730 5732 5734 5735 5736 5738 5739 5740 5740 5742 5744 5745 5747 5752 5755 5754 5754 5755 5755 5757 5758 5759 5762 5764 5764 5766 5767 5767 5769 5771 5774 5777 5778 5779 5780 5782 5783 5784 5785 5785 5786 5786 5786 5787 5788 5789 5790 5790 5791 5791 5792 5792 5793 5794 5794 5795 5795 5795 5795 5795 5795 5796 5796 5796 5796 5796 5796
5708 5710 5713 5715 5716 5718 5720 5722 5724 5727 5728 5729 5731 5733 5733 5734 5736 5738 5739 5740 5745 5749 5749 5750 5751 5751 5750 5752 5754 5756 5758 5759 5760 5762 5763 5763 5764 5767 5771 5773 5775 5776 5776 5778 5779 5781 5782 5782 5782 5783 5783 5784 5784 5785 5786 5786 5786 5787 5788 5788 5789 5790 5791 5791 5791 5791 5791 5791 5792 5792 5792 5792 5793 5793
5700 5702 5704 5706 5708 5709 5712 5714 5716 5718 5721 5722 5724 5726 5726 5728 5731 5731 5731 5733 5737 5743 5745 5745 5746 5747 5745 5747 5750 5751 5752 5755 5756 5757 5758 5758 5758 5761 5763 5766 5769 5771 5772 5772 5773 5775 5777 5778 5778 5779 5779 5780 5780 5780 5781 5782 5782 5782 5783 5783 5784 5785 5786 5787 5787 5788 5787 5787 5787 5787 5788 5788 5788 5789
5691 5694 5696 5697 5699 5700 5703 5705 5707 5710 5712 5714 5716 5718 5719 5722 5724 5724 5724 5726 5729 5734 5740 5740 5740 5742 5742 5742 5744 5745 5746 5749 5751 5752 5754 5754 5754 5755 5757 5760 5763 5765 5767 5767 5768 5769 5771 5773 5774 5775 5775 5776 5776 5776 5777 5777 5778 5778 5778 5779 5779 5780 5781 5782 5783 5783 5783 5783 5783 5783 5783 5783 5784 5784
5684 5685 5687 5689 5690 5692 5694 5696 5698 5700 5703 5705 5707 5709 5712 5714 5716 5717 5718 5720 5721 5725 5731 5734 5734 5735 5737 5737 5739 5740 5740 5742 5744 5746 5748 5749 5749 5750 5752 5754 5756 5759 5761 5763 5763 5763 5765 5767 5768 5769 5770 5771 5771 5772 5772 5773 5773 5774 5774 5774 5774 5775 5776 5776 5777 5778 5778 5779 5779 5778 5778 5778 5779 5779
5675 5677 5679 5681 5682 5684 5686 5687 5689 5691 5694 5696 5698 5701 5704 5706 5707 5709 5711 5713 5715 5717 5721 5726 5728 5729 5730 5731 5733 5734 5735 5736 5738 5739 5741 5743 5743 5744 5747 5748 5750 5752 5754 5757 5758 5759 5759 5760 5762 5763 5764 5765 5766 5767 5768 5768 5769 5769 5770 5770 5770 5770 5770 5771 5771 5772 5773 5774 5774 5774 5774 5774 5774 5774
5666 5669 5671 5673 5674 5676 5677 5678 5680 5683 5684 5686 5689 5692 5695 5697 5698 5701 5704 5707 5709 5710 5712 5716 5720 5722 5723 5724 5726 5728 5728 5729 5731 5732 5734 5736 5737 5739 5741 5742 5743 5744 5746 5750 5752 5754 5754 5755 5756 5757 5758 5759 5760 5761 5762 5763 5764 5765 5765 5765 5765 5765 5765 5766 5766 5767 5767 5768 5768 5768 5769 5769 5769 5769
5658 5661 5664 5666 5667 5668 5670 5671 5672 5674 5675 5677 5680 5683 5686 5688 5690 5692 5694 5698 5701 5702 5703 5706 5710 5713 5716 5716 5718 5721 5721 5721 5724 5727 5729 5731 5731 5732 5734 5736 5738 5738 5739 5742 5745 5747 5749 5750 5750 5751 5751 5752 5753 5755 5757 5758 5759 5759 5760 5761 5761 5761 5761 5761 5761 5761 5762 5762 5763 5763 5763 5764 5764 5764
5650 5654 5657 5658 5660 5662 5664 5665 5665 5666 5667 5669 5672 5675 5677 5679 5682 5684 5686 5689 5692 5694 5695 5696 5700 5704 5708 5709 5710 5713 5713 5714 5718 5721 5722 5723 5724 5725 5726 5728 5731 5733 5733 5735 5737 5739 5741 5743 5743 5744 5744 5745 5747 5749 5751 5752 5753 5755 5756 5756 5756 5757 5757 5757 5757 5757 5757 5757 5757 5757 5758 5758 5759 5759
5644 5647 5649 5651 5653 5655 5657 5659 5659 5660 5660 5661 5664 5667 5668 5670 5673 5675 5678 5680 5684 5687 5688 5689 5692 5696 5699 5701 5703 5705 5706 5708 5711 5712 5713 5715 5717 5719 5720 5721 5724 5726 5727 5729 5730 5732 5734 5734 5735 5736 5737 5739 5741 5742 5744 5746 5748 5749 5750 5750 5751 5752 5752 5753 5753 5753 5753 5752 5752 5752 5752 5753 5753 5754
5638 5640 5642 5644 5646 5648 5650 5652 5653 5653 5653 5654 5656 5658 5660 5662 5664 5666 5668 5671 5675 5678 5680 5681 5685 5688 5691 5693 5695 5696 5699 5701 5703 5704 5705 5706 5709 5711 5713 5715 5717 5718 5720 5722 5723 5725 5725 5725 5727 5730 5730 5732 5734 5735 5737 5739 5741 5742 5743 5744 5745 5746 5747 5747 5748 5748 5748 5748 5747 5747 5747 5748 5748 5749
5633 5634 5636 5637 5639 5641 5642 5644 5645 5646 5647 5648 5649 5650 5652 5654 5656 5658 5660 5663 5666 5670 5672 5673 5676 5679 5682 5684 5686 5688 5691 5694 5695 5695 5697 5698 5700 5703 5705 5709 5712 5712 5713 5714 5715 5718 5719 5717 5719 5723 5724 5725 5726 5728 5729 5731 5733 5735 5737 5738 5739 5740 5740 5741 5742 5742 5743 5743 5742 5742 5743 5743 5744 5744
5628 5629 5630 5630 5632 5633 5634 5636 5637 5638 5640 5641 5641 5642 5645 5648 5650 5651 5652 5655 5658 5661 5663 5664 5666 5670 5674 5675 5677 5679 5683 5685 5686 5687 5689 5691 5693 5695 5698 5701 5705 5706 5706 5705 5706 5711 5714 5712 5712 5715 5718 5718 5719 5720 5722 5724 5726 5728 5729 5730 5732 5734 5734 5735 5735 5735 5736 5736 5737 5737 5738 5738 5738 5739
5621 5622 5623 5624 5625 5626 5627 5628 5630 5631 5633 5634 5635 5636 5639 5641 5643 5644 5645 5647 5649 5654 5656 5655 5657 5662 5665 5666 5668 5671 5674 5677 5678 5679 5681 5683 5686 5688 5690 5692 5696 5698 5698 5697 5698 5702 5707 5707 5706 5707 5710 5711 5711 5713 5715 5717 5719 5720 5722 5723 5725 5726 5727 5728 5728 5728 5729 5729 5730 5731 5732 5732 5732 5732
5615 5615 5617 5618 5618 5619 5619 5620 5622 5624 5626 5628 5629 5630 5632 5634 5636 5637 5638 5639 5641 5645 5647 5648 5650 5653 5655 5657 5660 5662 5664 5668 5670 5670 5671 5673 5676 5679 5681 5683 5686 5689 5690 5690 5690 5693 5698 5700 5699 5700 5702 5704 5705 5706 5708 5709 5710 5712 5715 5717 5718 5719 5720 5721 5721 5722 5722 5723 5724 5724 5725 5725 5725 5725
5608 5609 5610 5611 5611 5611 5612 5613 5615 5618 5620 5622 5623 5624 5626 5627 5628 5630 5631 5632 5633 5635 5637 5639 5642 5645 5646 5648 5651 5653 5655 5657 5659 5660 5662 5664 5666 5669 5672 5674 5676 5680 5683 5684 5683 5686 5690 5691 5691 5692 5695 5697 5698 5700 5701 5701 5702 5703 5706 5709 5711 5711 5712 5713 5714 5714 5715 5716 5716 5717 5718 5718 5718 5718
5601 5602 5602 5603 5604 5604 5605 5607 5609 5612 5614 5615 5616 5618 5620 5621 5622 5623 5624 5624 5625 5627 5629 5632 5635 5638 5639 5640 5642 5643 5644 5647 5649 5650 5652 5656 5658 5660 5663 5665 5668 5672 5675 5677 5677 5678 5681 5683 5684 5685 5688 5689 5691 5693 5694 5694 5695 5696 5698 5700 5701 5703 5704 5705 5706 5707 5707 5708 5708 5709 5710 5710 5711 5711
5594 5594 5595 5595 5597 5597 5599 5601 5603 5605 5606 5608 5609 5611 5613 5614 5616 5617 5617 5617 5617 5620 5623 5626 5628 5631 5632 5633 5634 5635 5636 5638 5640 5641 5644 5649 5652 5653 5655 5657 5660 5663 5667 5669 5670 5670 5672 5676 5677 5678 5680 5681 5683 5685 5687 5688 5689 5690 5691 5691 5692 5694 5696 5698 5699 5699 5699 5700 5700 5701 5701 5702 5703 5703
5588 5587 5588 5588 5589 5591 5592 5594 5596 5597 5598 5600 5602 5604 5606 5607 5608 5609 5610 5610 5611 5613 5616 5619 5620 5622 5623 5624 5626 5628 5628 5630 5631 5634 5638 5641 5643 5644 5647 5649 5652 5655 5659 5662 5662 5661 5663 5666 5669 5670 5671 5673 5675 5677 5679 5681 5682 5684 5685 5685 5685 5687 5688 5689 5691 5692 5692 5692 5693 5693 5693 5694 5694 5695
5582 5581 5581 5581 5582 5584 5585 5587 5588 5589 5590 5593 5595 5597 5599 5600 5601 5601 5602 5604 5604 5605 5608 5610 5611 5613 5614 5615 5618 5620 5621 5622 5623 5626 5630 5631 5632 5635 5639 5641 5643 5646 5652 5655 5653 5653 5655 5657 5659 5662 5662 5664 5668 5670 5671 5674 5676 5677 5678 5678 5680 5680 5680 5681 5682 5684 5685 5686 5686 5686 5686 5686 5686 5687
5575 5575 5574 5575 5575 5577 5577 5578 5579 5580 5583 5585 5587 5589 5591 5592 5593 5595 5596 5596 5596 5598 5599 5601 5602 5604 5606 5607 5610 5611 5613 5615 5616 5618 5622 5623 5624 5627 5630 5633 5634 5638 5644 5648 5645 5645 5647 5648 5650 5654 5653 5654 5659 5663 5664 5666 5669 5671 5671 5671 5673 5673 5673 5673 5674 5676 5677 5678 5678 5679 5679 5679 5679 5679
5569 5568 5568 5568 5569 5569 5569 5570 5571 5573 5576 5578 5580 5581 5583 5585 5586 5588 5588 5588 5589 5590 5592 5593 5594 5596 5598 5600 5602 5603 5605 5606 5608 5610 5613 5615 5617 5620 5623 5626 5628 5631 5637 5639 5636 5636 5639 5639 5641 5645 5646 5646 5649 5652 5656 5659 5661 5663 5663 5664 5665 5666 5665 5665 5666 5668 5669 5670 5671 5672 5672 5672 5672 5672
5562 5561 5561 5561 5561 5562 5562 5563 5565 5566 5568 5570 5572 5573 5575 5577 5579 5580 5581 5582 5582 5583 5585 5586 5587 5589 5591 5592 5594 5596 5597 5598 5599 5601 5605 5609 5613 5615 5616 5618 5620 5623 5628 5628 5626 5628 5630 5631 5633 5635 5638 5640 5641 5642 5645 5650 5652 5653 5653 5655 5657 5657 5657 5657 5658 5659 5661 5662 5663 5664 5665 5665 5665 5665
5555 5554 5554 5554 5554 5554 5555 5556 5558 5559 5560 5561 5563 5565 5567 5569 5571 5573 5575 5576 5576 5576 5577 5579 5580 5582 5583 5585 5587 5588 5589 5591 5592 5594 5598 5602 5606 5608 5609 5610 5613 5616 5618 5617 5617 5620 5622 5623 5625 5628 5630 5631 5631 5632 5635 5639 5642 5643 5644 5646 5647 5647 5647 5649 5650 5651 5652 5652 5654 5655 5656 5656 5657 5656
5549 5548 5548 5547 5547 5547 5548 5549 5550 5552 5553 5554 5556 5558 5560 5562 5564 5566 5568 5569 5570 5570 5571 5572 5574 5575 5576 5578 5579 5581 5583 5585 5586 5589 5591 5594 5598 5600 5601 5602 5604 5607 5607 5607 5608 5611 5613 5614 5617 5619 5621 5622 5622 5624 5626 5628 5630 5633 5634 5636 5638 5638 5639 5641 5642 5643 5643 5643 5644 5646 5647 5648 5648 5648
5544 5543 5542 5542 5541 5541 5541 5542 5543 5545 5546 5547 5549 5551 5552 5555 5557 5559 5561 5562 5563 5564 5565 5566 5567 5569 5570 5571 5572 5574 5576 5578 5580 5582 5585 5588 5590 5591 5592 5592 5594 5596 5597 5598 5600 5601 5602 5606 5609 5610 5612 5615 5616 5617 5618 5618 5620 5623 5625 5627 5629 5630 5631 5633 5634 5634 5634 5635 5635 5637 5638 5640 5639 5639
5540 5539 5538 5537 5537 5537 5537 5537 5537 5538 5539 5541 5542 5544 5546 5548 5550 5552 5554 5556 5557 5558 5559 5560 5561 5562 5563 5564 5566 5567 5569 5570 5572 5575 5578 5580 5581 5581 5582 5584 5585 5586 5587 5590 5592 5592 5594 5597 5600 5601 5604 5607 5608 5609 5609 5609 5613 5616 5617 5618 5620 5622 5624 5626 5626 5625 5625 5626 5627 5628 5629 5629 5629 5630
5537 5536 5535 5534 5534 5533 5533 5533 5533 5533 5534 5535 5536 5538 5540 5541 5543 5545 5547 5549 5551 5552 5553 5554 5555 5556 5557 5558 5560 5560 5562 5563 5565 5568 5570 5571 5572 5572 5574 5575 5576 5577 5580 5582 5584 5586 5587 5589 5591 5593 5595 5597 5599 5600 5600 5602 5606 5609 5611 5611 5613 5614 5616 5618 5618 5617 5617 5618 5618 5619 5619 5619 5620 5622
5536 5535 5534 5533 5532 5531 5530 5530 5529 5529 5530 5530 5531 5533 5535 5536 5538 5539 5541 5543 5545 5546 5547 5548 5549 5550 5551 5553 5553 5554 5555 5557 5558 5560 5561 5562 5563 5564 5565 5566 5568 5570 5573 5574 5576 5578 5580 5581 5582 5584 5586 5588 5589 5591 5593 5595 5597 5601 5603 5604 5605 5606 5608 5610 5610 5609 5609 5609 5609 5610 5611 5611 5612 5613
5535 5534 5533 5532 5531 5530 5529 5528 5528 5527 5527 5527 5528 5529 5530 5531 5533 5534 5536 5537 5538 5540 5541 5542 5543 5544 5545 5546 5547 5548 5549 5550 5551 5552 5553 5554 5555 5555 5556 5558 5560 5563 5565 5566 5568 5570 5572 5573 5575 5576 5577 5579 5581 5583 5585 5587 5589 5592 5594 5594 5596 5598 5599 5601 5601 5601 5601 5601 5601 5601 5602 5603 5604 5604
5535 5534 5532 5531 5530 5529 5528 5527 5526 5526 5525 5525 5525 5525 5526 5527 5528 5529 5530 5531 5532 5533 5534 5535 5536 5537 5538 5539 5540 5540 5541 5542 5543 5544 5545 5545 5546 5547 5548 5549 5552 5555 5557 5558 5559 5561 5562 5565 5566 5567 5569 5571 5574 5575 5577 5579 5581 5583 5585 5585 5586 5588 5590 5591 5593 5593 5593 5592 5592 5593 5593 5594 5595 5595
5535 5534 5532 5531 5529 5528 5527 5526 5525 5524 5524 5523 5523 5523 5523 5524 5524 5525 5525 5526 5526 5527 5528 5529 5530 5530 5531 5531 5532 5533 5533 5534 5535 5536 5536 5537 5538 5539 5539 5541 5542 5545 5547 5549 5550 5551 5553 5556 5558 5558 5560 5564 5566 5567 5568 5570 5572 5574 5576 5577 5578 5579 5580 5582 5583 5583 5583 5583 5584 5585 5585 5585 5585 5585
5534 5532 5531 5529 5528 5527 5525 5524 5523 5522 5522 5521 5521 5520 5520 5520 5520 5520 5520 5520 5521 5521 5522 5522 5523 5523 5524 5524 5525 5526 5526 5527 5528 5528 5529 5529 5530 5530 5531 5532 5534 5536 5538 5539 5541 5542 5544 5547 5548 5550 5553 5555 5557 5558 5559 5562 5564 5565 5567 5568 5569 5570 5571 5573 5573 5574 5574 5575 5576 5576 5575 5575 5575 5576
5533 5531 5529 5528 5526 5525 5524 5523 5522 5521 5520 5519 5518 5518 5517 5517 5516 5515 5515 5515 5515 5515 5516 5516 5517 5518 5518 5519 5519 5519 5520 5520 5521 5521 5522 5522 5522 5523 5524 5525 5526 5527 5529 5530 5532 5533 5535 5537 5539 5542 5545 5547 5548 5550 5552 5554 5555 5556 5558 5559 5560 5561 5562 5563 5564 5565 5566 5567 5566 5566 5566 5566 5566 5567
5532 5530 5529 5527 5525 5524 5522 5521 5520 5519 5518 5518 5517 5516 5515 5514 5513 5511 5510 5509 5509 5510 5511 5511 5512 5513 5513 5513 5514 5514 5514 5515 5515 5515 5515 5515 5515 5515 5516 5517 5518 5519 5520 5522 5523 5525 5527 5530 5532 5534 5536 5539 5540 5542 5544 5545 5547 5548 5549 5551 5551 5552 5553 5555 5555 5555 5556 5557 5556 5557 5557 5557 5557 5557
5531 5530 5528 5527 5525 5523 5521 5520 5519 5518 5516 5515 5514 5513 5512 5511 5509 5508 5506 5506 5506 5506 5507 5507 5508 5508 5508 5508 5508 5508 5509 5509 5509 5509 5508 5508 5507 5507 5508 5509 5510 5511 5513 5514 5516 5519 5521 5524 5526 5527 5529 5531 5532 5534 5535 5537 5538 5539 5541 5543 5543 5544 5545 5546 5545 5546 5546 5547 5547 5548 5548 5548 5548 5548
5531 5529 5528 5526 5524 5522 5521 5519 5518 5516 5515 5513 5512 5511 5509 5508 5506 5505 5504 5503 5503 5504 5504 5504 5504 5504 5504 5503 5503 5503 5504 5504 5504 5504 5504 5503 5502 5502 5503 5503 5504 5505 5506 5508 5511 5513 5516 5518 5520 5522 5523 5525 5526 5527 5528 5529 5530 5531 5533 5534 5535 5536 5537 5537 5537 5537 5537 5538 5539 5540 5540 5540 5540 5540
5531 5529 5527 5526 5524 5522 5520 5518 5517 5515 5514 5512 5511 5509 5508 5506 5505 5504 5502 5501 5501 5501 5501 5501 5500 5500 5499 5499 5499 5499 5499 5500 5500 5500 5500 5500 5499 5499 5500 5500 5501 5501 5502 5504 5506 5509 5511 5513 5514 5516 5518 5519 5520 5521 5522 5523 5524 5525 5526 5527 5527 5528 5528 5528 5528 5529 5530 5530 5531 5532 5532 5532 5531 5532
5530 5529 5527 5526 5524 5522 5521 5519 5517 5515 5513 5512 5510 5509 5507 5506 5505 5504 5503 5502 5501 5500 5499 5499 5498 5497 5497 5496 5496 5496 5496 5496 5497 5497 5498 5498 5497 5497 5498 5499 5499 5499 5499 5500 5502 5504 5506 5507 5509 5511 5513 5513 5513 5514 5515 5516 5518 5519 5519 5520 5521 5521 5520 5519 5519 5520 5521 5522 5524 5524 5523 5522 5523 5523
5530 5528 5527 5525 5524 5522 5521 5519 5517 5516 5514 5512 5511 5509 5508 5506 5505 5504 5503 5502 5501 5500 5500 5499 5498 5497 5496 5495 5494 5494 5494 5495 5495 5496 5497 5497 5496 5497 5497 5498 5497 5497 5498 5498 5499 5500 5502 5503 5505 5506 5507 5507 5508 5509 5509 5511 5512 5512 5512 5513 5514 5514 5513 5512 5512 5512 5513 5514 5515 5515 5514 5514 5514 5515
5529 5527 5526 5525 5523 5521 5520 5519 5517 5516 5514 5513 5511 5510 5508 5507 5506 5505 5504 5502 5501 5500 5499 5499 5498 5498 5497 5496 5495 5495 5495 5495 5495 5496 5496 5496 5496 5496 5496 5496 5495 5496 5496 5497 5497 5497 5498 5499 5500 5501 5501 5502 5503 5504 5505 5506 5507 5506 5505 5505 5507 5508 5507 5507 5506 5505 5506 5507 5508 5508 5506 5506 5506 5505
5528 5526 5525 5524 5522 5521 5519 5518 5516 5515 5514 5512 5511 5510 5509 5507 5506 5505 5504 5503 5502 5501 5500 5500 5499 5499 5498 5497 5496 5495 5495 5495 5495 5495 5495 5495 5495 5494 5494 5494 5494 5494 5494 5494 5494 5495 5495 5495 5496 5496 5497 5497 5498 5499 5500 5502 5501 5498 5498 5499 5500 5500 5500 5499 5498 5498 5499 5501 5502 5500 5498 5498 5497 5496
Wind_Speed
48 47 47 46 44 43 42 42 42 40 40 40 39 38 37 36 36 36 38 38 36 37 40 42 42 40 40 40 40 39 38 39 39 39 41 41 39 39 38 36 35 33 32 30 30 30 30 30 30 30 30 30 30 29 29 28 28 27 26 26 25 24 23 22 22 23 23 23 23 22 22 22 22 22
50 50 50 50 48 47 46 46 45 44 43 43 43 42 41 40 39 37 37 36 33 34 37 40 40 42 43 43 43 41 38 38 39 39 40 41 40 40 41 39 38 36 34 32 32 31 31 31 31 30 30 29 30 30 30 30 29 29 28 27 27 26 25 25 24 24 24 25 25 25 24 24 24 24
53 52 52 52 52 51 50 50 49 48 47 46 46 46 44 43 42 40 39 37 33 33 36 38 38 41 43 43 43 41 38 38 39 40 41 41 41 42 42 42 40 39 36 34 33 33 32 32 32 32 31 30 30 30 31 31 31 30 30 29 28 28 27 27 26 26 26 26 26 26 26 26 26 26
55 55 55 55 54 54 54 54 53 52 51 50 49 49 48 47 46 43 42 40 36 35 37 38 37 38 41 43 43 42 41 42 42 41 41 41 42 42 42 43 42 41 39 37 36 35 34 34 33 33 33 32 30 30 31 32 32 32 31 31 30 29 29 29 28 28 27 27 27 28 28 28 28 28
57 57 57 57 57 57 57 57 56 55 54 54 53 52 51 50 49 46 46 45 41 38 39 39 37 37 40 42 42 42 42 43 44 42 40 40 42 42 41 42 42 42 41 40 38 37 36 36 36 35 34 33 33 32 32 32 33 33 33 32 32 31 30 30 30 30 29 29 29 29 30 30 30 30
59 59 59 59 59 59 59 59 59 58 58 57 57 56 55 54 51 48 49 49 46 40 39 41 41 39 40 40 40 43 44 43 43 42 39 37 40 42 42 42 42 42 42 42 41 40 39 38 38 37 36 35 35 34 33 33 33 34 34 34 33 32 32 31 31 31 31 31 31 31 31 31 32 32
61 61 61 61 61 61 62 62 62 61 61 60 60 59 58 57 55 53 52 51 50 46 42 43 44 42 43 42 40 41 44 45 46 45 42 39 39 42 43 43 42 43 43 44 44 43 42 41 40 40 39 38 37 36 35 35 35 35 36 35 35 34 33 32 32 32 32 32 33 33 33 33 33 33
61 62 62 62 62 62 62 62 62 63 63 63 63 62 60 60 60 59 57 55 55 52 47 46 46 46 45 46 44 43 43 44 46 48 47 45 44 44 44 44 44 44 43 44 45 45 45 43 42 43 43 42 40 39 38 37 36 36 37 37 37 36 34 34 33 33 33 33 34 35 35 34 34 35
61 61 60 59 59 58 59 60 61 62 63 64 65 65 64 63 63 63 61 58 57 58 54 50 49 49 49 49 47 46 46 45 46 47 47 48 50 50 48 48 48 47 45 44 44 46 47 46 45 45 46 46 44 42 40 39 38 37 38 38 38 37 37 36 35 35 34 34 35 36 36 36 36 36
60 60 59 57 56 55 56 57 57 57 59 61 64 66 66 66 66 65 63 58 56 58 59 57 54 52 52 52 50 50 50 49 47 47 46 47 49 51 51 50 50 50 49 46 45 45 46 47 46 46 47 48 47 45 44 42 41 39 39 39 39 39 39 38 38 37 36 36 36 37 38 38 38 38
59 58 57 54 53 52 52 52 52 53 55 57 60 63 66 67 68 67 64 61 58 58 59 59 58 57 56 55 53 52 53 53 50 48 47 47 48 49 51 52 52 52 51 49 48 47 46 45 46 47 48 49 48 47 46 46 44 42 41 40 40 40 40 40 40 40 39 39 39 39 39 39 39 40
56 55 53 51 50 49 47 47 47 49 50 52 54 56 59 63 66 67 67 65 63 62 61 60 59 59 59 58 57 56 56 56 53 51 51 51 50 50 51 52 52 52 52 52 51 50 48 47 46 47 48 49 50 48 48 48 46 45 44 42 41 41 40 41 41 42 42 42 41 41 40 40 40 41
51 51 50 49 49 48 46 44 44 45 46 47 49 50 51 55 60 63 66 66 65 63 62 62 61 59 57 57 58 60 60 58 56 55 56 56 54 52 52 52 52 52 52 53 52 52 52 51 49 47 47 48 48 49 49 49 48 47 46 45 43 42 42 42 42 43 44 44 44 44 43 42 41 41
47 48 49 49 49 48 47 45 45 45 45 46 46 47 47 49 52 57 61 64 65 64 62 62 62 61 59 56 55 58 61 61 59 59 59 59 57 55 54 54 52 52 53 53 53 53 53 52 49 47 48 48 49 50 50 50 49 48 48 47 46 45 44 43 43 44 45 45 46 47 46 44 43 43
45 47 49 50 50 49 48 48 47 47 46 46 47 48 48 47 48 51 56 60 63 65 64 62 61 62 64 63 60 59 59 62 64 63 61 61 60 59 57 55 52 51 52 54 55 53 53 54 52 49 48 49 50 49 49 49 49 48 48 47 46 46 46 46 45 45 45 46 47 48 48 47 46 45
46 48 49 50 51 50 50 50 50 49 48 47 48 50 49 48 47 49 51 55 58 61 63 62 61 61 63 66 66 62 58 59 63 67 65 63 62 61 60 57 53 51 52 55 56 54 53 54 55 53 51 50 50 50 49 50 49 48 48 47 46 46 47 48 48 47 47 47 48 48 48 48 48 48
47 48 49 50 51 51 52 52 52 51 50 49 50 51 50 49 49 50 51 52 54 57 61 63 61 60 62 66 68 65 61 58 59 63 65 65 63 61 60 59 55 52 54 57 57 56 53 52 54 54 52 51 50 50 50 52 52 51 51 51 49 47 46 47 48 49 49 49 49 49 49 49 49 50
48 49 49 50 51 52 53 54 54 53 52 51 51 51 50 50 51 52 52 52 52 53 58 62 61 59 61 65 66 67 67 64 59 58 61 65 67 64 61 61 58 54 53 55 57 57 55 53 54 55 54 53 52 51 51 52 54 55 53 52 52 51 50 48 48 49 50 50 49 50 50 51 51 52
49 49 50 50 51 52 53 54 54 53 52 52 51 50 50 51 51 51 51 52 53 53 56 61 62 60 61 64 66 67 68 69 67 63 59 61 66 67 65 64 62 57 54 54 55 56 54 52 53 54 55 55 54 52 52 52 54 55 54 52 53 54 53 53 52 52 52 52 52 52 52 53 53 54
49 50 50 50 51 52 53 53 53 53 52 52 51 50 49 49 49 49 49 51 53 54 55 58 60 60 59 61 65 68 69 70 72 71 66 61 62 65 67 67 65 61 58 56 56 57 55 53 52 53 54 55 55 53 52 53 53 53 53 53 54 54 54 54 54 55 55 55 55 55 55 55 55 55
45 49 50 51 51 52 53 52 52 53 52 51 49 49 49 48 48 48 50 52 54 55 55 55 56 56 55 55 59 63 65 67 69 71 72 68 65 64 66 67 67 65 62 59 58 58 57 54 53 54 54 54 55 53 51 51 52 52 52 54 54 54 53 53 54 54 54 54 54 54 55 56 56 57
40 43 47 50 52 52 52 52 52 52 51 49 49 49 49 49 50 50 51 52 54 55 55 55 55 55 54 53 52 55 57 59 62 65 67 67 67 67 67 66 67 67 66 63 62 63 62 58 56 55 55 55 55 54 52 51 52 52 52 53 54 53 53 53 53 53 53 52 51 50 50 51 53 56
38 39 42 46 49 51 52 52 52 51 50 49 50 50 49 50 50 50 50 51 52 54 54 55 55 55 56 55 53 52 53 53 55 58 60 61 64 66 67 68 69 68 66 65 66 68 68 66 63 61 59 58 56 56 55 54 53 53 53 53 52 53 54 54 53 53 52 52 51 50 50 50 50 51
39 39 40 41 44 47 50 52 52 51 50 49 50 49 49 49 49 49 49 50 50 51 52 54 55 55 56 56 55 55 54 53 53 53 54 57 60 62 64 67 70 71 69 66 67 69 71 72 70 68 66 64 62 60 60 58 57 56 56 55 54 53 54 55 54 54 54 54 53 52 52 52 51 49
41 41 41 41 41 43 46 49 51 51 50 49 49 49 49 49 48 48 48 49 49 48 49 51 53 54 54 55 54 54 53 54 54 53 52 52 53 55 57 59 63 68 68 66 65 67 70 73 72 71 70 69 67 65 63 61 60 59 60 60 59 58 58 58 58 57 56 56 55 54 54 54 54 52
41 42 42 43 42 42 43 45 48 50 50 50 50 50 50 49 49 48 47 47 47 46 46 47 49 51 52 53 53 52 52 52 53 54 54 52 51 52 53 54 56 60 62 63 62 63 66 70 71 71 70 69 69 67 64 62 61 61 62 62 62 62 62 62 62 60 59 59 58 57 56 55 54 53
38 40 41 42 43 43 43 43 44 47 50 51 51 50 50 49 49 48 47 46 45 45 44 44 46 49 50 51 51 51 51 51 52 53 53 52 52 52 52 52 53 53 55 60 61 62 64 66 68 67 65 64 66 68 66 63 61 60 61 61 61 61 61 61 61 61 61 62 61 60 58 57 56 55
34 36 37 39 40 42 42 42 42 44 48 51 51 51 50 49 48 47 46 45 43 43 43 43 43 45 47 48 49 50 49 50 51 51 50 49 50 52 53 53 52 51 51 54 54 55 57 60 64 64 61 58 59 62 62 61 58 56 57 58 59 60 60 59 58 57 58 59 60 59 58 57 57 57
29 30 31 32 34 36 38 39 40 43 46 49 51 51 50 49 48 47 46 44 42 41 41 40 40 41 43 45 46 47 48 48 49 49 48 47 48 49 51 53 52 51 51 50 50 49 51 53 56 59 59 56 54 54 56 58 58 56 55 56 57 57 57 57 56 56 56 57 58 58 58 58 58 58
21 22 23 24 25 27 29 32 35 38 42 46 48 50 50 49 48 46 45 43 42 40 39 38 38 38 40 41 42 44 45 46 47 47 46 47 48 49 50 50 50 51 51 52 53 54 55 55 55 55 56 56 55 53 54 56 56 55 55 56 56 56 56 55 54 55 55 55 55 55 55 55 56 56
17 17 17 18 19 20 22 24 28 32 37 41 44 46 47 48 47 46 44 43 42 40 39 38 38 38 38 38 39 41 42 43 44 44 44 46 47 48 49 49 50 51 51 51 52 54 55 57 57 56 56 57 57 56 56 55 53 51 52 53 53 54 54 54 54 55 55 54 52 51 51 52 51 51
15 15 16 16 16 16 17 19 21 25 29 34 38 41 43 45 45 45 43 42 41 41 40 39 39 39 39 39 39 41 41 41 42 42 43 44 46 47 49 49 49 50 50 51 51 51 52 53 55 56 57 58 59 59 58 56 52 48 46 47 49 50 50 50 51 53 54 54 54 54 54 54 52 51
13 13 13 12 12 12 13 15 17 19 22 25 29 33 36 39 41 42 41 41 40 40 39 39 40 40 40 41 41 42 43 43 44 44 45 46 47 48 49 49 49 49 49 50 50 50 50 51 52 54 56 57 59 59 57 55 52 49 47 48 50 51 52 52 53 53 54 55 56 56 56 55 53 52
13 12 11 10 10 10 11 12 13 16 18 20 22 25 28 30 33 35 37 37 37 37 37 38 38 39 39 40 41 43 44 45 46 47 48 50 50 51 52 52 51 50 50 51 51 51 51 51 51 52 54 55 57 58 57 55 54 52 52 53 54 54 54 54 53 52 53 54 54 54 54 54 54 55
15 14 12 11 12 12 12 13 14 15 17 18 19 21 22 24 26 29 31 32 33 33 34 35 35 36 37 39 40 41 42 44 45 47 48 50 52 53 55 55 55 54 54 53 53 53 52 52 52 53 53 52 53 55 56 56 55 54 54 55 57 57 57 55 54 54 56 56 55 55 56 57 58 58
18 18 17 16 15 15 16 16 18 18 18 18 18 18 20 21 22 24 27 28 29 30 31 32 33 35 36 37 38 39 40 41 43 45 47 48 50 51 52 53 54 55 56 56 56 56 55 53 53 53 53 52 53 54 54 54 54 54 54 55 56 58 59 59 59 59 60 60 60 60 59 59 59 58
19 20 20 19 18 18 19 19 19 19 19 19 19 20 20 21 21 21 22 24 26 27 28 28 30 31 32 33 34 35 35 37 38 41 44 47 49 50 51 50 50 51 53 54 55 56 56 54 54 54 53 53 53 53 52 52 52 52 53 53 53 55 57 59 60 59 59 59 60 61 61 60 59 59
15 16 16 16 16 16 16 16 17 17 18 19 19 20 20 19 17 16 17 20 22 23 24 24 26 27 29 30 30 31 32 32 34 36 39 42 45 47 48 48 48 49 49 50 52 53 53 51 50 51 51 52 52 52 51 50 50 51 51 52 53 53 54 54 56 56 57 58 60 61 60 60 60 60
13 14 14 14 14 14 13 12 12 12 14 15 15 16 16 16 14 12 12 14 17 20 22 23 24 25 26 27 28 28 28 29 30 32 33 35 37 40 41 42 44 45 45 46 45 44 44 44 45 46 47 48 49 50 50 49 49 50 51 52 53 54 53 53 54 56 57 59 60 60 60 60 60 60
15 16 17 17 17 17 17 16 14 13 12 11 11 12 13 14 15 14 13 12 12 13 16 18 20 21 23 24 25 26 26 26 27 27 27 27 29 31 32 34 37 39 40 40 39 36 35 37 40 42 42 42 42 43 45 46 47 50 51 52 53 53 53 54 56 57 59 60 60 60 61 61 60 58
16 17 17 18 19 19 19 20 19 18 16 15 14 13 12 13 14 15 15 15 15 14 13 14 15 16 17 18 19 21 23 23 23 23 23 22 22 24 25 27 29 31 33 35 36 36 35 35 37 40 42 43 43 43 43 43 43 45 47 49 51 53 54 56 57 58 60 61 61 60 60 59 57 56
15 16 17 17 17 18 18 18 19 18 18 18 17 16 15 14 14 13 13 13 13 13 14 14 15 16 17 18 18 19 20 20 19 19 19 19 20 20 20 22 25 27 28 31 34 37 38 38 37 39 42 44 46 47 49 49 48 48 48 48 50 53 56 58 60 61 62 62 61 59 57 56 56 56
15 15 16 16 16 17 16 16 16 16 15 15 15 15 14 14 13 13 12 11 10 10 10 11 11 13 15 17 18 18 17 16 16 17 17 18 20 21 20 22 25 26 25 26 29 34 38 40 40 40 42 45 47 49 50 52 53 54 55 54 53 54 56 56 56 56 56 56 56 55 55 56 56 56
15 15 16 16 16 17 16 16 15 14 14 13 12 11 11 11 10 11 11 11 11 11 11 11 10 10 11 10 11 14 15 15 17 18 17 17 18 19 21 23 26 27 25 23 23 26 31 35 37 39 41 43 45 46 47 48 49 51 54 55 56 56 55 52 49 48 49 49 50 50 51 51 52 53
16 16 16 16 16 16 16 16 15 14 13 12 11 10 10 9 9 9 9 10 10 10 10 10 10 9 10 8 5 8 12 14 15 16 15 12 11 10 11 15 18 20 20 19 17 17 19 21 24 27 30 31 32 34 35 35 36 38 41 43 46 48 47 44 41 41 42 42 42 42 42 43 44 46
Wind_Direction
254 255 255 255 255 255 255 256 257 258 260 261 261 260 261 260 258 258 256 254 256 259 260 260 256 253 253 255 257 258 256 252 250 248 247 245 245 247 248 248 250 252 253 255 257 258 260 260 260 259 258 260 261 262 262 263 265 268 271 274 276 278 279 277 274 272 271 271 270 270 270 270 271 271
253 253 254 254 254 253 254 255 255 255 257 259 259 259 260 261 260 261 260 256 256 260 263 263 259 252 251 253 254 256 256 252 249 249 248 246 244 244 246 248 248 249 251 253 255 256 258 259 260 260 259 258 260 262 263 263 264 265 267 269 272 274 276 276 276 274 272 272 272 271 271 270 270 271
252 252 253 253 253 252 251 252 253 253 254 256 258 259 259 260 260 262 262 258 257 261 264 265 261 255 252 253 253 253 253 254 253 251 249 248 246 244 245 247 248 249 250 251 253 254 256 257 258 260 260 259 259 260 263 263 264 265 265 267 268 270 272 274 274 274 273 272 272 272 273 272 272 272
251 252 251 252 252 251 250 250 251 251 251 252 254 257 257 258 259 259 261 261 258 258 262 264 262 258 254 254 255 254 254 258 258 254 251 250 249 248 247 247 248 250 250 250 251 253 255 256 257 259 260 260 260 260 261 263 264 265 265 266 267 268 269 271 272 273 273 272 272 272 273 273 273 273
250 250 251 251 250 250 250 249 249 249 250 250 251 253 254 255 257 257 257 258 257 256 259 262 262 260 258 256 256 256 256 259 259 255 251 250 251 251 250 249 248 249 251 251 251 252 253 255 256 257 259 260 261 261 260 262 264 265 266 266 267 267 267 268 269 271 272 271 271 271 272 273 273 274
249 249 250 250 250 249 249 249 248 247 248 249 250 250 251 252 253 255 256 256 256 253 253 258 259 258 260 260 258 256 256 255 254 254 252 251 253 253 252 252 251 250 251 252 252 252 252 254 255 256 258 258 259 260 260 261 263 264 266 266 266 267 267 267 267 268 269 270 270 270 270 271 272 273
248 249 249 249 249 248 248 248 247 246 245 246 248 249 250 251 250 251 255 256 256 253 250 253 256 255 257 261 260 257 256 253 250 252 252 253 256 257 255 254 253 252 251 251 253 253 253 253 255 256 256 257 257 259 259 259 260 262 264 265 265 265 265 266 266 267 268 269 269 268 268 269 270 271
248 249 249 249 249 249 248 248 247 246 245 244 246 247 248 250 249 250 253 255 256 255 250 249 252 252 253 256 258 257 257 256 253 253 252 252 255 258 258 257 257 256 253 252 253 254 254 254 255 256 257 257 256 256 257 258 259 260 262 264 265 265 265 265 265 265 266 267 268 268 267 267 268 270
248 248 250 251 252 252 251 250 248 248 247 245 244 244 245 247 248 249 251 253 255 256 253 248 247 249 250 252 254 256 257 257 257 256 255 254 255 258 260 259 258 258 257 254 254 255 256 255 254 256 257 258 258 257 256 257 257 259 260 262 265 266 266 265 264 264 264 265 267 268 267 267 267 267
249 247 249 251 252 254 254 254 252 251 249 247 245 244 244 245 246 247 248 249 252 255 255 251 247 246 248 249 250 253 255 256 256 256 256 256 257 259 260 259 258 258 259 258 257 256 255 255 255 256 257 258 259 259 259 258 257 257 258 260 263 264 266 267 266 265 264 264 265 267 267 267 266 266
249 247 248 251 252 254 256 257 257 255 253 251 248 246 245 244 245 246 246 246 246 250 253 253 250 248 247 248 249 249 251 253 253 254 256 257 258 259 259 259 258 258 259 260 261 259 256 255 255 256 257 258 259 259 260 260 259 258 258 259 261 263 265 266 267 267 265 264 264 265 266 267 267 267
251 248 249 252 252 254 256 256 257 258 257 256 253 251 249 247 246 246 246 245 244 247 251 251 251 250 249 249 250 249 249 251 251 251 254 254 255 256 258 259 259 259 258 259 260 260 259 259 256 254 254 257 259 261 261 261 261 262 262 262 262 262 264 265 266 267 267 266 265 264 265 266 266 267
252 248 249 252 252 253 255 253 253 255 257 258 257 255 253 251 249 248 247 247 245 246 250 251 251 250 249 251 253 251 249 249 250 250 251 252 252 254 256 258 259 259 257 258 259 259 260 261 259 255 254 255 258 260 261 261 262 262 263 263 264 264 264 265 266 267 268 268 267 266 265 265 265 266
250 248 251 253 253 253 253 251 251 253 256 258 258 257 255 254 252 250 249 248 246 245 248 252 252 250 249 251 254 253 249 248 249 249 249 250 252 252 253 255 258 259 258 257 258 257 258 259 258 257 258 258 256 258 260 260 259 259 260 261 263 264 265 266 266 267 267 268 269 269 268 267 266 266
246 249 253 254 254 254 253 251 252 253 256 259 259 257 256 255 255 253 251 249 246 244 246 250 251 248 247 248 251 253 251 249 248 248 249 250 251 251 252 253 255 258 258 257 256 255 255 257 258 259 262 262 258 256 257 258 259 259 259 259 260 262 264 265 266 266 267 267 268 269 270 270 270 268
247 251 253 254 255 256 255 254 254 255 256 259 261 259 257 257 257 256 254 252 249 244 244 248 249 247 246 247 249 251 250 249 248 248 248 249 250 251 252 253 253 255 255 255 255 253 254 257 259 260 263 265 262 257 255 257 259 260 260 261 261 260 261 262 263 265 266 266 267 268 269 270 271 270
252 253 254 255 256 257 257 256 255 256 257 260 262 260 259 259 259 257 255 253 251 246 244 248 251 250 247 247 248 249 248 248 249 248 247 248 249 250 252 252 252 251 251 253 254 254 253 255 259 260 261 265 267 265 261 260 259 259 259 261 262 262 261 259 260 262 263 264 266 267 269 269 269 270
255 255 256 257 257 257 257 257 257 257 258 261 263 260 258 259 259 258 256 254 252 249 246 247 250 250 248 246 247 249 249 249 249 248 248 246 246 247 250 251 250 248 248 251 253 254 254 255 257 258 259 263 266 268 266 263 262 262 261 260 261 262 262 261 261 262 262 262 263 265 267 268 268 269
256 257 257 257 257 257 257 257 258 258 260 262 262 259 257 258 258 258 256 254 252 249 246 246 247 249 249 248 249 250 251 250 248 248 247 247 245 245 246 248 247 246 248 252 255 255 254 254 255 256 258 260 262 265 266 265 264 264 264 262 261 261 262 263 264 265 264 263 263 264 264 264 265 267
257 257 257 257 257 257 258 258 258 260 262 262 260 257 256 257 257 258 257 256 255 252 249 248 247 248 249 249 248 248 249 249 249 248 247 246 246 246 245 245 246 247 249 253 255 253 251 251 253 256 257 258 260 262 263 264 265 265 266 265 263 262 263 264 265 265 265 265 266 266 264 263 263 263
258 256 256 256 256 257 258 259 260 261 261 260 257 256 256 256 256 257 257 257 257 257 255 253 251 250 250 250 248 247 247 248 249 249 249 249 248 247 247 246 247 249 251 252 253 252 252 252 254 255 256 256 258 260 261 261 263 265 266 266 266 265 265 266 265 265 266 267 267 267 267 265 264 263
264 259 256 255 255 257 258 259 260 261 260 257 255 255 256 257 257 257 257 259 260 260 259 257 255 252 251 251 250 248 248 249 249 249 250 251 250 249 249 249 250 250 251 252 253 253 253 255 256 256 255 254 255 257 259 261 263 265 266 266 267 267 267 267 265 264 265 267 268 268 269 269 269 268
271 266 262 258 255 256 257 258 259 259 257 255 255 255 256 257 258 258 259 261 262 261 259 257 255 254 252 250 249 249 250 251 251 250 249 250 250 249 250 251 251 251 251 253 255 254 253 256 258 258 257 254 252 255 258 261 263 265 266 267 267 267 267 266 265 264 264 266 268 270 271 273 275 275
273 271 267 263 259 256 255 255 255 255 254 253 253 255 256 257 257 258 260 262 263 261 258 256 255 254 252 251 250 250 251 252 254 252 250 249 250 251 250 251 252 252 252 254 256 256 256 257 258 259 259 258 256 256 259 261 262 262 264 265 266 266 267 267 266 266 266 268 270 271 272 274 276 278
272 270 269 266 263 259 256 254 253 253 253 252 252 253 254 255 255 256 258 261 263 261 259 257 255 254 252 251 250 251 251 252 252 252 250 250 252 253 253 252 252 252 252 254 256 257 257 258 259 259 260 261 261 262 262 262 263 263 262 263 265 267 268 269 269 268 269 270 271 271 272 274 275 277
270 268 267 266 264 261 258 255 253 251 251 250 250 250 251 252 253 253 255 258 261 260 258 256 255 253 252 250 249 250 250 250 251 251 250 250 252 254 255 253 252 252 252 254 255 256 256 257 259 260 262 264 265 265 265 265 264 264 264 264 265 266 267 268 269 269 270 270 270 271 273 273 273 274
272 268 266 264 263 262 260 257 253 251 249 248 248 248 249 250 250 252 253 256 258 259 257 254 252 252 251 249 248 248 249 249 250 251 252 251 250 251 253 254 252 251 252 253 254 255 256 257 258 260 263 264 264 265 265 266 265 264 264 264 264 265 266 268 269 270 270 270 270 271 272 272 271 272
277 273 269 265 263 262 260 258 254 250 248 247 247 246 247 248 249 250 252 255 257 258 256 254 251 251 250 250 249 249 249 249 249 251 252 251 249 248 250 251 250 248 250 252 253 254 254 255 256 257 257 260 263 265 265 265 263 261 262 263 264 265 267 268 269 270 271 270 270 270 270 271 272 272
280 277 274 270 267 264 262 259 255 251 248 247 246 246 246 246 247 248 249 252 254 256 255 254 252 250 249 250 249 249 249 249 250 250 250 251 250 248 249 250 250 249 249 249 250 251 252 253 254 254 253 255 260 263 263 262 260 259 261 263 264 265 266 267 269 270 271 270 270 270 270 271 271 271
289 287 283 279 276 273 269 266 260 254 250 248 246 245 245 245 246 246 247 249 251 252 253 252 251 249 248 248 248 248 248 248 248 249 249 249 249 249 249 250 251 250 250 249 248 249 251 252 252 251 250 252 255 257 258 259 259 259 260 262 263 265 266 268 268 268 269 269 269 269 270 270 269 268
308 306 302 296 291 285 280 274 267 260 255 252 249 247 245 245 245 245 245 246 248 250 251 251 251 250 249 248 247 247 247 247 247 248 249 249 249 249 250 250 250 251 252 251 250 250 250 251 250 248 247 248 251 254 257 260 259 257 257 260 263 265 266 268 268 267 267 268 268 268 267 267 268 268
316 315 313 309 304 299 293 285 278 270 263 258 255 252 248 246 245 245 245 246 247 249 250 251 252 252 251 250 249 249 249 249 249 249 249 249 249 250 250 250 250 251 252 253 253 252 252 252 251 249 246 246 249 252 256 258 257 254 253 255 258 259 260 262 265 265 265 265 266 265 264 265 268 269
309 307 306 303 299 296 294 291 287 281 274 268 263 259 255 252 250 248 248 248 248 249 250 251 252 253 253 253 252 251 251 251 251 251 251 251 251 251 251 251 251 251 251 252 253 253 252 252 252 251 249 248 249 251 254 256 256 254 252 252 254 255 255 257 260 263 265 264 264 264 263 264 266 267
308 301 294 287 284 284 285 288 288 284 278 272 267 264 260 258 256 254 253 252 252 252 253 254 255 255 256 256 257 256 255 255 254 254 253 252 252 252 252 253 252 252 251 252 252 251 251 251 252 252 252 252 252 253 255 257 258 257 255 254 254 254 255 255 256 259 263 263 263 263 263 264 264 265
318 316 307 294 287 287 288 291 294 291 282 272 264 260 257 257 258 258 257 256 256 257 258 260 261 262 262 262 262 262 261 261 260 259 257 256 255 254 254 254 253 253 252 252 252 251 251 251 251 251 252 253 254 255 257 258 259 259 257 256 255 255 254 254 254 254 257 260 262 264 265 265 265 266
322 324 321 314 307 301 296 295 295 295 292 285 277 270 268 268 266 262 259 257 257 257 258 260 261 262 262 262 263 263 264 264 263 263 262 261 259 258 256 256 255 254 253 253 252 252 252 251 251 251 252 252 253 254 256 258 259 259 259 258 258 257 256 255 254 254 256 260 263 264 264 265 265 265
323 322 321 318 311 304 298 293 291 290 290 288 285 280 277 278 276 270 262 257 255 255 256 257 259 260 261 261 262 263 264 265 265 266 265 264 262 260 259 258 257 256 256 254 254 253 253 252 252 252 252 253 253 254 255 256 257 258 258 259 259 259 258 257 256 257 257 258 260 262 263 264 264 264
326 324 322 319 314 310 305 298 291 287 284 282 279 276 274 277 281 279 270 261 256 255 256 258 260 261 261 261 262 263 264 267 269 271 270 267 264 261 259 258 258 257 256 255 254 254 254 254 253 253 253 253 254 254 254 255 255 256 257 258 259 259 259 257 256 256 255 256 258 261 262 264 265 265
342 339 336 333 332 335 334 326 312 300 293 288 284 284 287 292 300 303 292 273 261 256 257 259 262 263 264 264 264 265 267 270 273 276 277 274 267 261 258 258 257 256 256 255 254 253 254 255 255 254 253 254 254 254 253 253 254 254 255 256 257 258 258 256 255 255 255 257 259 261 262 264 267 268
355 353 351 349 349 351 351 350 346 339 332 325 316 311 313 317 321 323 321 310 291 274 266 264 266 268 269 269 269 269 271 272 273 276 279 279 270 261 259 258 257 254 252 250 246 244 247 252 254 252 250 250 252 253 253 254 255 256 256 257 258 257 257 256 256 256 256 258 260 262 265 267 269 270
354 353 353 353 353 354 354 353 353 352 352 353 352 348 343 339 336 334 331 328 325 318 308 298 291 287 283 281 278 274 271 271 272 272 274 274 269 264 262 261 260 257 254 249 242 238 239 245 248 248 245 244 244 245 246 247 251 256 259 261 263 262 261 260 260 259 258 260 262 264 266 267 267 268
347 349 349 350 351 351 350 350 350 351 352 355 357 358 357 355 352 349 342 337 333 327 320 313 307 304 302 302 298 289 280 275 274 271 268 267 266 266 266 265 261 259 256 252 247 244 243 245 246 245 244 245 247 248 246 244 246 249 252 256 259 261 259 258 257 256 256 257 258 259 259 259 259 261
341 343 345 345 346 346 346 346 346 346 348 350 353 355 356 357 357 356 355 354 351 346 337 328 319 313 310 306 301 294 287 278 270 264 260 259 259 259 261 260 257 251 243 240 241 243 245 247 248 248 248 251 254 256 256 255 255 256 256 256 257 258 256 253 251 250 250 250 251 253 254 254 256 258
335 337 339 340 341 340 341 341 342 342 343 345 349 351 353 354 356 358 1 5 7 7 4 357 347 339 332 315 286 266 255 247 242 242 247 254 256 253 250 251 253 251 243 237 236 236 236 237 240 242 245 247 250 253 256 259 260 260 259 258 257 258 258 257 255 254 253 253 254 256 257 258 259 261
328 331 333 337 338 338 337 337 337 339 341 342 345 348 350 353 357 360 3 9 14 15 14 11 6 2 1 356 319 256 238 232 229 233 244 264 281 278 263 257 259 260 258 257 255 250 243 240 240 241 243 245 247 248 250 253 254 255 255 255 254 255 258 262 264 264 263 262 263 265 267 267 268 268